Regional Weather Roundup
Issued by NWS

Home | Current Version | Previous Version | Graphics & Text | Print | Product List | Glossary Off
Versions: 1 2 3 4 5 6 7 8 9 10 11 12 13 14 15 16 17 18 19 20 21 22 23 24 25 26 27 28 29 30 31 32 33 34 35 36 37 38 39 40 41 42 43 44 45 46 47 48 49 50

000
ASUS43 KDTX 171610
RWRMI
MICHIGAN HOURLY REGIONAL WEATHER ROUNDUP
NATIONAL WEATHER SERVICE DETROIT/PONTIAC MI
1100 AM EST WED DEC 17 2014

NOTE: "FAIR" INDICATES FEW OR NO CLOUDS BELOW 12,000 FEET WITH NO
SIGNIFICANT WEATHER AND/OR OBSTRUCTION TO VISIBILITY.

MIZ047>049-052>055-059>063-066>070-074>076-081>083-171700-
SOUTHEAST LOWER MICHIGAN

CITY           SKY/WX    TMP DP  RH WIND       PRES   REMARKS
ADRIAN         CLOUDY    31  23  72 W9G21     30.13R WCI  23
ALMA           CLOUDY    30  26  85 W15G22    30.08R WCI  19
ANN ARBOR      CLOUDY    31  22  69 W17G24    30.09R WCI  19
BAD AXE        CLOUDY    32  30  92 W15G26    29.97S WCI  21
CARO           CLOUDY    31  27  83 W16G25    30.02R WCI  20
DETROIT CITY   CLOUDY    34  23  64 W9        30.08R WCI  27
DETROIT        CLOUDY    32  23  69 W17G23    30.09R WCI  21
FLINT          CLOUDY    32  25  75 W18       30.07R WCI  20
GROSSE ILE     CLOUDY    32  25  74 W16G22    30.09R WCI  21
HILLSDALE      CLOUDY    30  25  82 W17       30.11R WCI  18
HOWELL         CLOUDY    29  23  76 W20G26    30.08R WCI  17

CITY           SKY/WX    TMP DP  RH WIND       PRES   REMARKS
JACKSON        CLOUDY    30  21  69 NW9G23    30.10R WCI  22
LAMBERTVILLE   CLOUDY    34  23  64 W12G23    30.13S WCI  25
LANSING        CLOUDY    30  21  69 W14G24    30.10R WCI  19
LAPEER         CLOUDY    31  26  81 W15G24    30.03R WCI  20
MASON          CLOUDY    29  22  74 W15       30.09S WCI  18
MONROE         CLOUDY    32  25  74 W17G24    30.10R WCI  21
MT. CLEMENS    CLOUDY    33  25  73 W18G31    30.03R WCI  22
PONTIAC        CLOUDY    30  21  69 W22G31    30.05R WCI  17
PORT HOPE        N/A     32  28  85 W10G24    29.93R WCI  24
PORT HURON     CLOUDY    32  27  80 W13G24    30.02R WCI  22
TRI CITIES     CLOUDY    32  25  75 W22G29    30.04R WCI  19
TROY           CLOUDY    33  24  67 W21G26    30.08R WCI  22
SAGINAW HB     CLOUDY    32  28  86 W18G25    30.04R WCI  20
$$
MIZ043>046-050>051-056>058-064>065-071>073-077>080-171700-
SOUTHWEST LOWER MICHIGAN

CITY           SKY/WX    TMP DP  RH WIND       PRES   REMARKS
BATTLE CREEK   CLOUDY    30  22  72 W13       30.13R WCI  20
BENTON HARBOR  CLOUDY    28  20  71 W15       30.20R WCI  16
BIG RAPIDS     CLOUDY    28  27  95 W15G21    30.06R FOG     WCI  16
COLDWATER      CLOUDY    28  23  81 W17G24    30.14S WCI  16
FREMONT        CLOUDY    28  21  75 W17       30.12R WCI  16
HOLLAND        CLOUDY    31  22  69 W13       30.16R WCI  21
GRAND RAPIDS   FLURRIES  30  21  69 W18G25    30.12R WCI  18
IONIA          CLOUDY    30  22  72 W13G22    30.10R WCI  20
KALAMAZOO      CLOUDY    29  21  72 NW17G25   30.15R WCI  17
LUDINGTON      CLOUDY    31  24  74 NW13G21   30.12S WCI  21
MARSHALL       CLOUDY    29  23  79 W16       30.11S WCI  17
MOUNT PLEASANT CLOUDY    29  26  87 W15G21    30.05R WCI  18
MUSKEGON       FLURRIES  31  18  58 NW14G21   30.14R WCI  21
SOUTH HAVEN    CLOUDY    31  21  67 NW10      30.18R WCI  22
$$
MIZ016>042-171700-
NORTHERN LOWER MICHIGAN

CITY           SKY/WX    TMP DP  RH WIND       PRES   REMARKS
ALPENA         LGT SNOW  31  29  92 W8        29.93S FOG     WCI  23
BEAVER ISLAND  CLOUDY    28  25  87 NW9       30.00S WCI  19
BELLAIRE       LGT SNOW  31  28  90 W6        30.02R VSB 3/4 WCI  25
CADILLAC       CLOUDY    27  23  87 W14G22    30.01R WCI  15
CHARLEVOIX     CLOUDY    29  27  92 NW18G24   30.03R WCI  17
FRANKFORT      FLURRIES  28  24  84 NW14G22   30.09R WCI  17
GAYLORD        LGT SNOW  27  24  89 NW9G18    29.94R FOG     WCI  18
GRAYLING       LGT SNOW  30  28  92 CALM      29.97R
HARBOR SPRINGS CLOUDY    29  24  81 W9G17     29.98R WCI  21
HOUGHTON LAKE  LGT SNOW  29  24  82 W14       29.98R WCI  18
MANISTEE       CLOUDY    28  19  69 NW17G23   30.10R WCI  16
OSCODA         CLOUDY    33  32  94 W10       29.94R WCI  25
PELLSTON       LGT SNOW  29  25  85 NW14      29.98R FOG     WCI  18
ROGERS CITY    LGT SNOW  31  30  99 NW9       29.94R WCI  22
TRAVERSE CITY  LGT SNOW  30  26  85 W14       30.04R FOG     WCI  19
$$
MIZ007>008-015-171700-
EASTERN UPPER MICHIGAN

CITY           SKY/WX    TMP DP  RH WIND       PRES   REMARKS
KINROSS        CLOUDY    25  23  93 N8        29.95R WCI  16
MACKINAC ISLAN LGT SNOW  28  28 100 NW9       29.96R VSB 1   WCI  19
NEWBERRY       LGT SNOW  25  23  93 N9G16     29.98R WCI  15
S. S. MARIE    LGT SNOW  23  17  78 N6        29.94F WCI  16
MUNISING         N/A     30  25  81 N17       30.04R WCI  18
$$
MIZ004>006-011>014-085-171700-
CENTRAL UPPER MICHIGAN

CITY           SKY/WX    TMP DP  RH WIND       PRES   REMARKS
MANISTIQUE     CLOUDY    28  26  94 NW7       30.01S WCI  20
ESCANABA       CLOUDY    25  19  80 W16       30.06R WCI  12
MENOMINEE      CLOUDY    25  14  63 NW8G17    30.13R WCI  16
SAWYER-GWINN   LGT SNOW  25  21  86 N14G20    30.04R WCI  13
$$
MIZ001>003-009>011-084-171700-
WESTERN UPPER MICHIGAN

CITY           SKY/WX    TMP DP  RH WIND       PRES   REMARKS
IRON MOUNTAIN  LGT SNOW  22  17  81 NW12      30.09R WCI  10
HOUGHTON       LGT SNOW  24  19  81 N17       30.12R VSB 3/4 WCI  11
COPPER HARBOR    N/A     27  23  85 NE25      30.13R WCI  12
IRONWOOD       CLOUDY    18  16  93 W13       30.16R WCI   4
$$

ABBREVIATIONS USED IN REMARKS
   TC - TEMPERATURE IN CELSIUS
  WCI - WIND CHILL INDEX
   HX - HEAT INDEX
  VSB - VISIBILITY



USA.gov is the U.S. government's official web portal to all federal, state and local government web resources and services.